This is the latest recevied weather packets stored in our database for station/object KC9ZAR-13. If no packets are shown the sender has not sent any weather packets the latest 10 day(s).
| Time | Temp. | Humidity | Pressure | Rain* | Wind** | Luminosity | Snow |
|---|---|---|---|---|---|---|---|
| 1777866304 | 16.11° C | 56% | 1009.4 hPa | 0 mm | - | 0 W/m² | - |
| 1777866004 | 16.11° C | 56% | 1009.6 hPa | 0 mm | - | 0 W/m² | - |
| 1777863005 | 16.67° C | 53% | 1009.8 hPa | 0 mm | - | 0 W/m² | - |
| 1777862405 | 16.67° C | 53% | 1009.4 hPa | 0 mm | - | 0 W/m² | - |
| 1777860605 | 16.67° C | 52% | 1009.5 hPa | 0 mm | - | 0 W/m² | - |
| 1777860306 | 16.67° C | 52% | 1009.5 hPa | 0 mm | - | 0 W/m² | - |
| 1777859106 | 17.22° C | 52% | 1009.6 hPa | 0 mm | - | 0 W/m² | - |
| 1777857905 | 17.22° C | 50% | 1009.7 hPa | 0 mm | - | 0 W/m² | - |
| 1777856106 | 17.78° C | 50% | 1009.9 hPa | 0 mm | - | 0 W/m² | - |
| 1777854606 | 18.33° C | 49% | 1010.2 hPa | 0 mm | - | 0 W/m² | - |
| 1777854306 | 18.33° C | 49% | 1010.2 hPa | 0 mm | - | 0 W/m² | - |
| 1777854006 | 18.33° C | 48% | 1010.3 hPa | 0 mm | - | 0 W/m² | - |
| 1777853706 | 18.33° C | 48% | 1010.3 hPa | 0 mm | - | 0 W/m² | - |
| 1777852506 | 18.89° C | 46% | 1010.4 hPa | 0 mm | - | 0 W/m² | - |
| 1777851905 | 18.89° C | 45% | 1010.4 hPa | 0 mm | - | 0 W/m² | - |
| 1777849806 | 19.44° C | 46% | 1009.9 hPa | 0 mm | - | 0 W/m² | - |
| 1777848906 | 19.44° C | 44% | 1010.2 hPa | 0 mm | - | 0 W/m² | - |
| 1777848605 | 19.44° C | 45% | 1010 hPa | 0 mm | - | 0 W/m² | - |
| 1777848005 | 19.44° C | 45% | 1010.1 hPa | 0 mm | - | 0 W/m² | - |
| 1777847706 | 19.44° C | 45% | 1010.1 hPa | 0 mm | - | 0 W/m² | - |
| 1777847106 | 19.44° C | 45% | 1010.1 hPa | 0 mm | - | 0 W/m² | - |
| 1777846505 | 19.44° C | 46% | 1010.2 hPa | 0 mm | - | 0 W/m² | - |
| 1777845605 | 19.44° C | 45% | 1010.7 hPa | 0 mm | - | 0 W/m² | - |
| 1777845306 | 19.44° C | 45% | 1010.8 hPa | 0 mm | - | 0 W/m² | - |
| 1777841705 | 18.89° C | 48% | 1012.1 hPa | 0 mm | - | 0 W/m² | - |
* Rain latest hour (hover to see other rain measurements)
** Current wind speed in m/s (hover to see current wind gust speed)